Weather History for Sanford, FL

Change the Weather History Date:

Monday, June 10, 2013

  Actual Average Record
Temperature  
Mean Temperature 81 °F -  
Max Temperature 90 °F 90 °F 99 °F (1985)
Min Temperature 73 °F 69 °F 62 °F (1979)
Cooling Degree Days 16    
Growing Degree Days 31 (Base 50)    
Moisture  
Dew Point 73 °F    
Average Humidity 80    
Maximum Humidity 97    
Minimum Humidity 52    
Precipitation  
Precipitation 0.05 in - - ()
Sea Level Pressure  
Sea Level Pressure 30.08 in    
Wind  
Wind Speed 6 mph (SSE)    
Max Wind Speed 21 mph    
Max Gust Speed 26 mph    
Visibility 10 miles    
Events Thunderstorm    
Averages and records for this station are not official NWS values.
T = Trace of Precipitation, MM = Missing Value Source: NWS Daily Summary

Daily Weather History Graph

Daily Weather History Graph

Search for Another Location

Airport:

Trip Planner

Search our weather history database for the weather conditions in past years. The results will help you decide how hot, cold, wet, or windy it might be!

Date:

Astronomy

Jun. 10, 2013 Rise Set
Actual Time 6:26 AM EDT 8:22 PM EDT
Civil Twilight 5:59 AM EDT 8:49 PM EDT
Nautical Twilight 5:26 AM EDT 9:22 PM EDT
Astronomical Twilight 4:52 AM EDT 9:57 PM EDT
Moon 8:07 AM EDT (6/10) 9:56 PM EDT (6/10)
Length of Visible Light 14h 50m
Length of Day
13h 56m
Waxing Crescent, 4% of the Moon is Illuminated
Jun 10
Waxing Crescent
Jun 16
First Quarter
Jun 23
Full
Jun 30
Last Quarter
Jul 8
New

Hourly Weather History & Observations

Time (EDT) Temp. Heat Index Dew Point Humidity Pressure Visibility Wind Dir Wind Speed Gust Speed Precip Events Conditions
12:53 AM 77.0 °F - 73.0 °F 88% 30.11 in 10.0 mi SSE 6.9 mph - N/A   Clear
1:53 AM 75.9 °F - 73.0 °F 91% 30.10 in 10.0 mi SE 5.8 mph - N/A   Clear
2:53 AM 75.0 °F - 73.0 °F 94% 30.09 in 10.0 mi SE 5.8 mph - N/A   Clear
3:53 AM 73.9 °F - 73.0 °F 97% 30.09 in 10.0 mi Calm Calm - N/A   Clear
4:53 AM 73.9 °F - 73.0 °F 97% 30.07 in 10.0 mi SE 3.5 mph - N/A   Clear
5:53 AM 73.9 °F - 73.0 °F 97% 30.08 in 10.0 mi SE 3.5 mph - N/A   Clear
6:53 AM 73.9 °F - 73.0 °F 97% 30.09 in 7.0 mi ESE 4.6 mph - N/A   Clear
7:53 AM 77.0 °F - 75.0 °F 94% 30.10 in 10.0 mi SE 4.6 mph - N/A   Clear
8:53 AM 80.1 °F 84.5 °F 73.9 °F 81% 30.11 in 10.0 mi SSE 8.1 mph - N/A   Clear
9:45 AM 82.4 °F 88.2 °F 73.4 °F 74% 30.12 in 10.0 mi SSE 11.5 mph - N/A   Mostly Cloudy
9:53 AM 82.9 °F 89.4 °F 73.9 °F 74% 30.12 in 10.0 mi South 8.1 mph - N/A   Mostly Cloudy
10:10 AM 82.4 °F 88.2 °F 73.4 °F 74% 30.12 in 10.0 mi South 9.2 mph - N/A   Scattered Clouds
10:53 AM 82.9 °F 88.0 °F 72.0 °F 69% 30.11 in 10.0 mi South 6.9 mph - N/A   Mostly Cloudy
11:53 AM 86.0 °F 91.5 °F 71.1 °F 61% 30.10 in 10.0 mi South 9.2 mph - N/A   Clear
12:53 PM 88.0 °F 95.6 °F 73.0 °F 61% 30.09 in 10.0 mi South 6.9 mph - N/A   Scattered Clouds
1:45 PM 89.6 °F 94.7 °F 69.8 °F 52% 30.08 in 10.0 mi SE 9.2 mph - N/A Thunderstorm Thunderstorm
1:53 PM 89.6 °F 94.7 °F 69.8 °F 52% 30.07 in 10.0 mi SE 8.1 mph - N/A Thunderstorm Thunderstorm
2:53 PM 88.0 °F 96.5 °F 73.9 °F 63% 30.06 in 10.0 mi East 10.4 mph - N/A Thunderstorm Thunderstorm
3:53 PM 89.1 °F 97.0 °F 73.0 °F 59% 30.04 in 10.0 mi SE 9.2 mph 18.4 mph N/A   Clear
4:53 PM 89.1 °F 97.0 °F 73.0 °F 59% 30.03 in 10.0 mi ESE 9.2 mph - N/A   Clear
5:53 PM 80.1 °F 84.5 °F 73.9 °F 81% 30.04 in 10.0 mi SSW 15.0 mph 23.0 mph N/A   Mostly Cloudy
6:00 PM 78.8 °F - 71.6 °F 78% 30.04 in 10.0 mi WSW 20.7 mph 26.5 mph N/A   Mostly Cloudy
6:53 PM 75.0 °F - 72.0 °F 90% 30.04 in 10.0 mi WNW 4.6 mph - 0.02 in   Scattered Clouds
7:53 PM 78.1 °F - 71.1 °F 79% 30.04 in 10.0 mi SSE 4.6 mph - 0.02 in   Scattered Clouds
8:53 PM 75.9 °F - 73.0 °F 91% 30.06 in 10.0 mi South 3.5 mph - N/A   Scattered Clouds
9:53 PM 75.0 °F - 73.0 °F 94% 30.08 in 10.0 mi Calm Calm - 0.01 in   Partly Cloudy
10:53 PM 75.9 °F - 73.9 °F 94% 30.09 in 10.0 mi Calm Calm - N/A   Clear
11:53 PM 77.0 °F - 73.9 °F 90% 30.10 in 10.0 mi South 3.5 mph - N/A   Clear